Location: Carbonear
(47.7333°N, 53.2500°W)
Time: 15:11:02
(UTC+00:00)

CUTE-I - Pass Details

Date: 04 December 2022
Orbit: 809 x 824 km, 98.7° (Epoch: 05 February)

Event Time Altitude Azimuth Distance (km) Brightness Sun altitude
Rises 22:22:30 0° 213° (SSW) 3,324 ? -26.1°
Reaches altitude 10° 22:25:46 10° 234° (SW) 2,402 ? -26.6°
Maximum altitude 22:28:59 16° 272° (W) 2,013 ? -27.2°
Drops below altitude 10° 22:32:13 10° 309° (NW) 2,419 ? -27.7°
Sets 22:35:33 0° 331° (NNW) 3,361 ? -28.3°
